Home > Weather > Anchorage > Past weeks

Flag for USA Past Weather in Anchorage, Alaska, USA — Yesterday and Last 2 Weeks

Now
58 °F

Heavy rain. Fog.


Feels Like: 58 °F
Forecast: 54 / 60 °F
Wind: 5 mph from Northeast

Location: Lake Hood Seaplane

Current Time: Jul 24, 2016 at 8:35:11 PM

Latest Report: Jul 24, 2016 at 7:53 PM


Visibility: 2 mi

Pressure: 29.65 "Hg

Humidity: 90%

Dew Point: 55 °F

Location of AnchorageLocation

Past Weather in Anchorage — Graph

°F

Anchorage Temperature Yesterday

Maximum temperature yesterday: 71 °F (at 4:53 PM)
Minimum temperature yesterday: 57 °F (at 1:53 AM)
Average temperature yesterday: 63 °F

High & Low Weather Summary for the Past Weeks

 TemperatureHumidityPressure
High80 °F (Jul 18, 4:53 PM)94% (Jul 24, 6:02 PM)30.38 "Hg (Jul 24, 6:02 PM)
Low57 °F (Jul 12, 3:53 AM)36% (Jul 18, 4:53 PM)29.55 "Hg (Jul 23, 12:53 AM)
Average65 °F67%29.99 "Hg
* Reported Jul 9 6:53 PM — Jul 24 6:53 PM, Anchorage, Weather by CustomWeather, © 2016

Note: Actual official high and low records may vary slightly from our data, if they occured in-between our weather recording intervals... More about our weather records

Advertising

Anchorage Weather History for the Previous 24 Hours

Scroll right to see more
 ConditionsComfort  
Time TempWeatherWind HumidityBarometerVisibility
6:53 PM
Sun, Jul 24
57 °FRain. Fog.3 mph93%29.65 "Hg1 mi
6:02 PM57 °FLight rain. Fog.5 mph94%29.64 "Hg3 mi
5:53 PM58 °FRain. Fog.6 mph90%29.64 "Hg1 mi
4:53 PM59 °FOvercast.No wind84%29.64 "Hg10 mi
3:53 PM59 °FLight rain. Mostly cloudy.3 mph87%29.64 "Hg9 mi
2:53 PM58 °FRain. Mostly cloudy.5 mph87%29.63 "Hg7 mi
1:53 PM57 °FLight rain. Mostly cloudy.5 mph90%29.63 "Hg10 mi
12:53 PM57 °FLight rain. Fog.5 mph90%29.63 "Hg5 mi
11:53 AM57 °FLight rain. Cloudy.No wind87%29.62 "Hg10 mi
10:53 AM58 °FMore clouds than sun.No wind78%29.62 "Hg9 mi
9:53 AM57 °FOvercast.5 mph81%29.62 "Hg10 mi
8:53 AM57 °FOvercast.5 mph81%29.62 "Hg10 mi
7:53 AM58 °FOvercast.3 mph75%29.62 "Hg10 mi
6:53 AM58 °FLight rain. Overcast.7 mph72%29.61 "Hg10 mi
5:53 AM58 °FLight rain. Mostly cloudy.6 mph70%29.61 "Hg10 mi
4:53 AM60 °FOvercast.8 mph62%29.60 "Hg10 mi
3:53 AM60 °FOvercast.6 mph62%29.61 "Hg10 mi
2:53 AM61 °FPartly cloudy.6 mph62%29.61 "Hg10 mi
1:53 AM62 °FOvercast.9 mph60%29.61 "Hg10 mi
12:53 AM63 °FMostly cloudy.7 mph65%29.60 "Hg10 mi
11:53 PM
Sat, Jul 23
65 °FMore clouds than sun.3 mph54%29.60 "Hg10 mi
10:53 PM66 °FOvercast.6 mph50%29.59 "Hg10 mi
9:53 PM68 °FOvercast.5 mph53%29.59 "Hg10 mi
8:53 PM69 °FMostly cloudy.3 mph45%29.57 "Hg10 mi
Weather by CustomWeather, © 2016

See weather overviewHow to use our weather pages